HVDC transfer

From www.emi.ea.govt.nz provided by the Electricity Authority (New Zealand)
Run at: 20240503142830

Parameters
Date range,22 Jul 2022 - 18 Aug 2022
Time scale,Trading period
Show,Average flow (MW)

Period start,Period end,Trading period,Direction,Energy transfer (GWh),Peak flow (MW),Average flow (MW)
22/07/2022 00:00:00,22/07/2022 00:30:00,1,Northward at Haywards,0.208,416,416
22/07/2022 00:30:00,22/07/2022 01:00:00,2,Northward at Haywards,0.183,366,366
22/07/2022 01:00:00,22/07/2022 01:30:00,3,Northward at Haywards,0.194,388,388
22/07/2022 01:30:00,22/07/2022 02:00:00,4,Northward at Haywards,0.154,308,308
22/07/2022 02:00:00,22/07/2022 02:30:00,5,Northward at Haywards,0.137,273,273
22/07/2022 02:30:00,22/07/2022 03:00:00,6,Northward at Haywards,0.137,273,273
22/07/2022 03:00:00,22/07/2022 03:30:00,7,Northward at Haywards,0.148,295,295
22/07/2022 03:30:00,22/07/2022 04:00:00,8,Northward at Haywards,0.173,346,346
22/07/2022 04:00:00,22/07/2022 04:30:00,9,Northward at Haywards,0.185,370,370
22/07/2022 04:30:00,22/07/2022 05:00:00,10,Northward at Haywards,0.214,428,428
22/07/2022 05:00:00,22/07/2022 05:30:00,11,Northward at Haywards,0.207,413,413
22/07/2022 05:30:00,22/07/2022 06:00:00,12,Northward at Haywards,0.174,348,348
22/07/2022 06:00:00,22/07/2022 06:30:00,13,Northward at Haywards,0.190,380,380
22/07/2022 06:30:00,22/07/2022 07:00:00,14,Northward at Haywards,0.218,436,436
22/07/2022 07:00:00,22/07/2022 07:30:00,15,Northward at Haywards,0.227,454,454
22/07/2022 07:30:00,22/07/2022 08:00:00,16,Northward at Haywards,0.190,379,379
22/07/2022 08:00:00,22/07/2022 08:30:00,17,Northward at Haywards,0.217,433,433
22/07/2022 08:30:00,22/07/2022 09:00:00,18,Northward at Haywards,0.205,409,409
22/07/2022 09:00:00,22/07/2022 09:30:00,19,Northward at Haywards,0.193,385,385
22/07/2022 09:30:00,22/07/2022 10:00:00,20,Northward at Haywards,0.189,377,377
22/07/2022 10:00:00,22/07/2022 10:30:00,21,Northward at Haywards,0.194,387,387
22/07/2022 10:30:00,22/07/2022 11:00:00,22,Northward at Haywards,0.169,338,338
22/07/2022 11:00:00,22/07/2022 11:30:00,23,Northward at Haywards,0.203,406,406
22/07/2022 11:30:00,22/07/2022 12:00:00,24,Northward at Haywards,0.204,407,407
22/07/2022 12:00:00,22/07/2022 12:30:00,25,Northward at Haywards,0.227,453,453
22/07/2022 12:30:00,22/07/2022 13:00:00,26,Northward at Haywards,0.243,486,486
22/07/2022 13:00:00,22/07/2022 13:30:00,27,Northward at Haywards,0.249,497,497
22/07/2022 13:30:00,22/07/2022 14:00:00,28,Northward at Haywards,0.252,504,504
22/07/2022 14:00:00,22/07/2022 14:30:00,29,Northward at Haywards,0.263,526,526
22/07/2022 14:30:00,22/07/2022 15:00:00,30,Northward at Haywards,0.323,645,645
22/07/2022 15:00:00,22/07/2022 15:30:00,31,Northward at Haywards,0.282,564,564
22/07/2022 15:30:00,22/07/2022 16:00:00,32,Northward at Haywards,0.278,555,555
22/07/2022 16:00:00,22/07/2022 16:30:00,33,Northward at Haywards,0.261,521,521
22/07/2022 16:30:00,22/07/2022 17:00:00,34,Northward at Haywards,0.231,461,461
22/07/2022 17:00:00,22/07/2022 17:30:00,35,Northward at Haywards,0.236,471,471
22/07/2022 17:30:00,22/07/2022 18:00:00,36,Northward at Haywards,0.204,408,408
22/07/2022 18:00:00,22/07/2022 18:30:00,37,Northward at Haywards,0.226,451,451
22/07/2022 18:30:00,22/07/2022 19:00:00,38,Northward at Haywards,0.222,444,444
22/07/2022 19:00:00,22/07/2022 19:30:00,39,Northward at Haywards,0.223,446,446
22/07/2022 19:30:00,22/07/2022 20:00:00,40,Northward at Haywards,0.227,453,453
22/07/2022 20:00:00,22/07/2022 20:30:00,41,Northward at Haywards,0.244,487,487
22/07/2022 20:30:00,22/07/2022 21:00:00,42,Northward at Haywards,0.261,522,522
22/07/2022 21:00:00,22/07/2022 21:30:00,43,Northward at Haywards,0.274,548,548
22/07/2022 21:30:00,22/07/2022 22:00:00,44,Northward at Haywards,0.299,598,598
22/07/2022 22:00:00,22/07/2022 22:30:00,45,Northward at Haywards,0.311,621,621
22/07/2022 22:30:00,22/07/2022 23:00:00,46,Northward at Haywards,0.296,592,592
22/07/2022 23:00:00,22/07/2022 23:30:00,47,Northward at Haywards,0.280,559,559
22/07/2022 23:30:00,23/07/2022 00:00:00,48,Northward at Haywards,0.269,538,538
23/07/2022 00:00:00,23/07/2022 00:30:00,1,Northward at Haywards,0.177,353,353
23/07/2022 00:30:00,23/07/2022 01:00:00,2,Northward at Haywards,0.119,237,237
23/07/2022 01:00:00,23/07/2022 01:30:00,3,Northward at Haywards,0.077,154,154
23/07/2022 01:30:00,23/07/2022 02:00:00,4,Northward at Haywards,0.068,135,135
23/07/2022 02:00:00,23/07/2022 02:30:00,5,Northward at Haywards,0.075,149,149
23/07/2022 02:30:00,23/07/2022 03:00:00,6,Northward at Haywards,0.084,167,167
23/07/2022 03:00:00,23/07/2022 03:30:00,7,Northward at Haywards,0.080,159,159
23/07/2022 03:30:00,23/07/2022 04:00:00,8,Northward at Haywards,0.083,166,166
23/07/2022 04:00:00,23/07/2022 04:30:00,9,Northward at Haywards,0.058,116,116
23/07/2022 04:30:00,23/07/2022 05:00:00,10,Northward at Haywards,0.055,109,109
23/07/2022 05:00:00,23/07/2022 05:30:00,11,Northward at Haywards,0.066,131,131
23/07/2022 05:30:00,23/07/2022 06:00:00,12,Northward at Haywards,0.029,58,58
23/07/2022 06:00:00,23/07/2022 06:30:00,13,Northward at Haywards,0.105,210,210
23/07/2022 06:30:00,23/07/2022 07:00:00,14,Northward at Haywards,0.142,283,283
23/07/2022 07:00:00,23/07/2022 07:30:00,15,Northward at Haywards,0.130,259,259
23/07/2022 07:30:00,23/07/2022 08:00:00,16,Northward at Haywards,0.142,283,283
23/07/2022 08:00:00,23/07/2022 08:30:00,17,Northward at Haywards,0.165,329,329
23/07/2022 08:30:00,23/07/2022 09:00:00,18,Northward at Haywards,0.075,149,149
23/07/2022 09:00:00,23/07/2022 09:30:00,19,Northward at Haywards,0.059,117,117
23/07/2022 09:30:00,23/07/2022 10:00:00,20,Northward at Haywards,0.063,126,126
23/07/2022 10:00:00,23/07/2022 10:30:00,21,Northward at Haywards,0.053,106,106
23/07/2022 10:30:00,23/07/2022 11:00:00,22,Northward at Haywards,0.096,192,192
23/07/2022 11:00:00,23/07/2022 11:30:00,23,Northward at Haywards,0.096,191,191
23/07/2022 11:30:00,23/07/2022 12:00:00,24,Northward at Haywards,0.095,190,190
23/07/2022 12:00:00,23/07/2022 12:30:00,25,Northward at Haywards,0.125,249,249
23/07/2022 12:30:00,23/07/2022 13:00:00,26,Northward at Haywards,0.179,358,358
23/07/2022 13:00:00,23/07/2022 13:30:00,27,Northward at Haywards,0.190,379,379
23/07/2022 13:30:00,23/07/2022 14:00:00,28,Northward at Haywards,0.205,410,410
23/07/2022 14:00:00,23/07/2022 14:30:00,29,Northward at Haywards,0.220,439,439
23/07/2022 14:30:00,23/07/2022 15:00:00,30,Northward at Haywards,0.225,450,450
23/07/2022 15:00:00,23/07/2022 15:30:00,31,Northward at Haywards,0.220,440,440
23/07/2022 15:30:00,23/07/2022 16:00:00,32,Northward at Haywards,0.207,413,413
23/07/2022 16:00:00,23/07/2022 16:30:00,33,Northward at Haywards,0.180,360,360
23/07/2022 16:30:00,23/07/2022 17:00:00,34,Northward at Haywards,0.170,340,340
23/07/2022 17:00:00,23/07/2022 17:30:00,35,Northward at Haywards,0.136,272,272
23/07/2022 17:30:00,23/07/2022 18:00:00,36,Northward at Haywards,0.118,235,235
23/07/2022 18:00:00,23/07/2022 18:30:00,37,Northward at Haywards,0.123,246,246
23/07/2022 18:30:00,23/07/2022 19:00:00,38,Northward at Haywards,0.121,242,242
23/07/2022 19:00:00,23/07/2022 19:30:00,39,Northward at Haywards,0.133,265,265
23/07/2022 19:30:00,23/07/2022 20:00:00,40,Northward at Haywards,0.140,280,280
23/07/2022 20:00:00,23/07/2022 20:30:00,41,Northward at Haywards,0.157,314,314
23/07/2022 20:30:00,23/07/2022 21:00:00,42,Northward at Haywards,0.176,352,352
23/07/2022 21:00:00,23/07/2022 21:30:00,43,Northward at Haywards,0.199,398,398
23/07/2022 21:30:00,23/07/2022 22:00:00,44,Northward at Haywards,0.219,437,437
23/07/2022 22:00:00,23/07/2022 22:30:00,45,Northward at Haywards,0.239,477,477
23/07/2022 22:30:00,23/07/2022 23:00:00,46,Northward at Haywards,0.235,470,470
23/07/2022 23:00:00,23/07/2022 23:30:00,47,Northward at Haywards,0.233,465,465
23/07/2022 23:30:00,24/07/2022 00:00:00,48,Northward at Haywards,0.197,394,394
24/07/2022 00:00:00,24/07/2022 00:30:00,1,Northward at Haywards,0.126,251,251
24/07/2022 00:30:00,24/07/2022 01:00:00,2,Northward at Haywards,0.143,286,286
24/07/2022 01:00:00,24/07/2022 01:30:00,3,Northward at Haywards,0.085,169,169
24/07/2022 01:30:00,24/07/2022 02:00:00,4,Northward at Haywards,0.091,182,182
24/07/2022 02:00:00,24/07/2022 02:30:00,5,Northward at Haywards,0.106,212,212
24/07/2022 02:30:00,24/07/2022 03:00:00,6,Northward at Haywards,0.115,230,230
24/07/2022 03:00:00,24/07/2022 03:30:00,7,Northward at Haywards,0.120,239,239
24/07/2022 03:30:00,24/07/2022 04:00:00,8,Northward at Haywards,0.119,238,238
24/07/2022 04:00:00,24/07/2022 04:30:00,9,Northward at Haywards,0.114,228,228
24/07/2022 04:30:00,24/07/2022 05:00:00,10,Northward at Haywards,0.121,241,241
24/07/2022 05:00:00,24/07/2022 05:30:00,11,Northward at Haywards,0.122,243,243
24/07/2022 05:30:00,24/07/2022 06:00:00,12,Northward at Haywards,0.161,322,322
24/07/2022 06:00:00,24/07/2022 06:30:00,13,Northward at Haywards,0.140,279,279
24/07/2022 06:30:00,24/07/2022 07:00:00,14,Northward at Haywards,0.071,142,142
24/07/2022 07:00:00,24/07/2022 07:30:00,15,Northward at Haywards,0.090,180,180
24/07/2022 07:30:00,24/07/2022 08:00:00,16,Northward at Haywards,0.114,228,228
24/07/2022 08:00:00,24/07/2022 08:30:00,17,Northward at Haywards,0.131,262,262
24/07/2022 08:30:00,24/07/2022 09:00:00,18,Northward at Haywards,0.106,212,212
24/07/2022 09:00:00,24/07/2022 09:30:00,19,Northward at Haywards,0.112,224,224
24/07/2022 09:30:00,24/07/2022 10:00:00,20,Northward at Haywards,0.137,273,273
24/07/2022 10:00:00,24/07/2022 10:30:00,21,Northward at Haywards,0.139,278,278
24/07/2022 10:30:00,24/07/2022 11:00:00,22,Northward at Haywards,0.139,278,278
24/07/2022 11:00:00,24/07/2022 11:30:00,23,Northward at Haywards,0.138,275,275
24/07/2022 11:30:00,24/07/2022 12:00:00,24,Northward at Haywards,0.138,275,275
24/07/2022 12:00:00,24/07/2022 12:30:00,25,Northward at Haywards,0.144,287,287
24/07/2022 12:30:00,24/07/2022 13:00:00,26,Northward at Haywards,0.151,302,302
24/07/2022 13:00:00,24/07/2022 13:30:00,27,Northward at Haywards,0.196,392,392
24/07/2022 13:30:00,24/07/2022 14:00:00,28,Northward at Haywards,0.208,415,415
24/07/2022 14:00:00,24/07/2022 14:30:00,29,Northward at Haywards,0.218,436,436
24/07/2022 14:30:00,24/07/2022 15:00:00,30,Northward at Haywards,0.222,443,443
24/07/2022 15:00:00,24/07/2022 15:30:00,31,Northward at Haywards,0.251,502,502
24/07/2022 15:30:00,24/07/2022 16:00:00,32,Northward at Haywards,0.242,483,483
24/07/2022 16:00:00,24/07/2022 16:30:00,33,Northward at Haywards,0.222,444,444
24/07/2022 16:30:00,24/07/2022 17:00:00,34,Northward at Haywards,0.169,337,337
24/07/2022 17:00:00,24/07/2022 17:30:00,35,Northward at Haywards,0.142,284,284
24/07/2022 17:30:00,24/07/2022 18:00:00,36,Northward at Haywards,0.151,302,302
24/07/2022 18:00:00,24/07/2022 18:30:00,37,Northward at Haywards,0.173,346,346
24/07/2022 18:30:00,24/07/2022 19:00:00,38,Northward at Haywards,0.138,275,275
24/07/2022 19:00:00,24/07/2022 19:30:00,39,Northward at Haywards,0.117,233,233
24/07/2022 19:30:00,24/07/2022 20:00:00,40,Northward at Haywards,0.127,254,254
24/07/2022 20:00:00,24/07/2022 20:30:00,41,Northward at Haywards,0.151,301,301
24/07/2022 20:30:00,24/07/2022 21:00:00,42,Northward at Haywards,0.174,347,347
24/07/2022 21:00:00,24/07/2022 21:30:00,43,Northward at Haywards,0.154,308,308
24/07/2022 21:30:00,24/07/2022 22:00:00,44,Northward at Haywards,0.188,375,375
24/07/2022 22:00:00,24/07/2022 22:30:00,45,Northward at Haywards,0.205,409,409
24/07/2022 22:30:00,24/07/2022 23:00:00,46,Northward at Haywards,0.190,379,379
24/07/2022 23:00:00,24/07/2022 23:30:00,47,Northward at Haywards,0.191,382,382
24/07/2022 23:30:00,25/07/2022 00:00:00,48,Northward at Haywards,0.200,400,400
25/07/2022 00:00:00,25/07/2022 00:30:00,1,Northward at Haywards,0.144,288,288
25/07/2022 00:30:00,25/07/2022 01:00:00,2,Northward at Haywards,0.107,214,214
25/07/2022 01:00:00,25/07/2022 01:30:00,3,Northward at Haywards,0.082,163,163
25/07/2022 01:30:00,25/07/2022 02:00:00,4,Northward at Haywards,0.098,196,196
25/07/2022 02:00:00,25/07/2022 02:30:00,5,Northward at Haywards,0.089,177,177
25/07/2022 02:30:00,25/07/2022 03:00:00,6,Northward at Haywards,0.099,197,197
25/07/2022 03:00:00,25/07/2022 03:30:00,7,Northward at Haywards,0.102,204,204
25/07/2022 03:30:00,25/07/2022 04:00:00,8,Northward at Haywards,0.105,210,210
25/07/2022 04:00:00,25/07/2022 04:30:00,9,Northward at Haywards,0.098,196,196
25/07/2022 04:30:00,25/07/2022 05:00:00,10,Northward at Haywards,0.095,190,190
25/07/2022 05:00:00,25/07/2022 05:30:00,11,Northward at Haywards,0.096,191,191
25/07/2022 05:30:00,25/07/2022 06:00:00,12,Northward at Haywards,0.117,234,234
25/07/2022 06:00:00,25/07/2022 06:30:00,13,Northward at Haywards,0.084,167,167
25/07/2022 06:30:00,25/07/2022 07:00:00,14,Northward at Haywards,0.066,132,132
25/07/2022 07:00:00,25/07/2022 07:30:00,15,Northward at Haywards,0.088,175,175
25/07/2022 07:30:00,25/07/2022 08:00:00,16,Northward at Haywards,0.115,229,229
25/07/2022 08:00:00,25/07/2022 08:30:00,17,Northward at Haywards,0.121,242,242
25/07/2022 08:30:00,25/07/2022 09:00:00,18,Northward at Haywards,0.178,355,355
25/07/2022 09:00:00,25/07/2022 09:30:00,19,Northward at Haywards,0.185,369,369
25/07/2022 09:30:00,25/07/2022 10:00:00,20,Northward at Haywards,0.175,349,349
25/07/2022 10:00:00,25/07/2022 10:30:00,21,Northward at Haywards,0.174,348,348
25/07/2022 10:30:00,25/07/2022 11:00:00,22,Northward at Haywards,0.175,349,349
25/07/2022 11:00:00,25/07/2022 11:30:00,23,Northward at Haywards,0.171,341,341
25/07/2022 11:30:00,25/07/2022 12:00:00,24,Northward at Haywards,0.231,462,462
25/07/2022 12:00:00,25/07/2022 12:30:00,25,Northward at Haywards,0.202,404,404
25/07/2022 12:30:00,25/07/2022 13:00:00,26,Northward at Haywards,0.172,343,343
25/07/2022 13:00:00,25/07/2022 13:30:00,27,Northward at Haywards,0.171,341,341
25/07/2022 13:30:00,25/07/2022 14:00:00,28,Northward at Haywards,0.163,325,325
25/07/2022 14:00:00,25/07/2022 14:30:00,29,Northward at Haywards,0.159,318,318
25/07/2022 14:30:00,25/07/2022 15:00:00,30,Northward at Haywards,0.143,286,286
25/07/2022 15:00:00,25/07/2022 15:30:00,31,Northward at Haywards,0.148,295,295
25/07/2022 15:30:00,25/07/2022 16:00:00,32,Northward at Haywards,0.191,381,381
25/07/2022 16:00:00,25/07/2022 16:30:00,33,Northward at Haywards,0.177,353,353
25/07/2022 16:30:00,25/07/2022 17:00:00,34,Northward at Haywards,0.160,319,319
25/07/2022 17:00:00,25/07/2022 17:30:00,35,Northward at Haywards,0.143,286,286
25/07/2022 17:30:00,25/07/2022 18:00:00,36,Northward at Haywards,0.187,373,373
25/07/2022 18:00:00,25/07/2022 18:30:00,37,Northward at Haywards,0.155,310,310
25/07/2022 18:30:00,25/07/2022 19:00:00,38,Northward at Haywards,0.098,196,196
25/07/2022 19:00:00,25/07/2022 19:30:00,39,Northward at Haywards,0.071,141,141
25/07/2022 19:30:00,25/07/2022 20:00:00,40,Northward at Haywards,0.056,112,112
25/07/2022 20:00:00,25/07/2022 20:30:00,41,Northward at Haywards,0.046,91,91
25/07/2022 20:30:00,25/07/2022 21:00:00,42,Northward at Haywards,0.055,109,109
25/07/2022 21:00:00,25/07/2022 21:30:00,43,Northward at Haywards,0.074,148,148
25/07/2022 21:30:00,25/07/2022 22:00:00,44,Northward at Haywards,0.118,235,235
25/07/2022 22:00:00,25/07/2022 22:30:00,45,Northward at Haywards,0.100,199,199
25/07/2022 22:30:00,25/07/2022 23:00:00,46,Northward at Haywards,0.080,159,159
25/07/2022 23:00:00,25/07/2022 23:30:00,47,Northward at Haywards,0.042,83,83
25/07/2022 23:30:00,26/07/2022 00:00:00,48,Northward at Haywards,0.041,82,82
26/07/2022 00:00:00,26/07/2022 00:30:00,1,Southward at Benmore,-0.030,-61,-61
26/07/2022 00:30:00,26/07/2022 01:00:00,2,Southward at Benmore,-0.021,-42,-42
26/07/2022 01:00:00,26/07/2022 01:30:00,3,Southward at Benmore,-0.038,-77,-77
26/07/2022 01:30:00,26/07/2022 02:00:00,4,Southward at Benmore,-0.027,-54,-54
26/07/2022 02:00:00,26/07/2022 02:30:00,5,Southward at Benmore,-0.011,-22,-22
26/07/2022 02:30:00,26/07/2022 03:00:00,6,Southward at Benmore,-0.001,-2,-2
26/07/2022 03:00:00,26/07/2022 03:30:00,7,Northward at Haywards,0.004,7,7
26/07/2022 03:30:00,26/07/2022 04:00:00,8,Northward at Haywards,0.008,15,15
26/07/2022 04:00:00,26/07/2022 04:30:00,9,Northward at Haywards,0.026,51,51
26/07/2022 04:30:00,26/07/2022 05:00:00,10,Northward at Haywards,0.032,63,63
26/07/2022 05:00:00,26/07/2022 05:30:00,11,Northward at Haywards,0.004,7,7
26/07/2022 05:30:00,26/07/2022 06:00:00,12,Northward at Haywards,0.015,30,30
26/07/2022 06:00:00,26/07/2022 06:30:00,13,Northward at Haywards,0.049,98,98
26/07/2022 06:30:00,26/07/2022 07:00:00,14,Northward at Haywards,0.025,50,50
26/07/2022 07:00:00,26/07/2022 07:30:00,15,Northward at Haywards,0.070,139,139
26/07/2022 07:30:00,26/07/2022 08:00:00,16,Northward at Haywards,0.079,158,158
26/07/2022 08:00:00,26/07/2022 08:30:00,17,Northward at Haywards,0.089,177,177
26/07/2022 08:30:00,26/07/2022 09:00:00,18,Northward at Haywards,0.126,252,252
26/07/2022 09:00:00,26/07/2022 09:30:00,19,Northward at Haywards,0.132,263,263
26/07/2022 09:30:00,26/07/2022 10:00:00,20,Northward at Haywards,0.130,259,259
26/07/2022 10:00:00,26/07/2022 10:30:00,21,Northward at Haywards,0.126,252,252
26/07/2022 10:30:00,26/07/2022 11:00:00,22,Northward at Haywards,0.131,262,262
26/07/2022 11:00:00,26/07/2022 11:30:00,23,Northward at Haywards,0.126,251,251
26/07/2022 11:30:00,26/07/2022 12:00:00,24,Northward at Haywards,0.142,284,284
26/07/2022 12:00:00,26/07/2022 12:30:00,25,Northward at Haywards,0.155,310,310
26/07/2022 12:30:00,26/07/2022 13:00:00,26,Northward at Haywards,0.165,330,330
26/07/2022 13:00:00,26/07/2022 13:30:00,27,Northward at Haywards,0.136,271,271
26/07/2022 13:30:00,26/07/2022 14:00:00,28,Northward at Haywards,0.134,267,267
26/07/2022 14:00:00,26/07/2022 14:30:00,29,Northward at Haywards,0.133,266,266
26/07/2022 14:30:00,26/07/2022 15:00:00,30,Northward at Haywards,0.148,295,295
26/07/2022 15:00:00,26/07/2022 15:30:00,31,Northward at Haywards,0.212,424,424
26/07/2022 15:30:00,26/07/2022 16:00:00,32,Northward at Haywards,0.236,471,471
26/07/2022 16:00:00,26/07/2022 16:30:00,33,Northward at Haywards,0.190,379,379
26/07/2022 16:30:00,26/07/2022 17:00:00,34,Northward at Haywards,0.144,287,287
26/07/2022 17:00:00,26/07/2022 17:30:00,35,Northward at Haywards,0.127,253,253
26/07/2022 17:30:00,26/07/2022 18:00:00,36,Northward at Haywards,0.140,280,280
26/07/2022 18:00:00,26/07/2022 18:30:00,37,Northward at Haywards,0.172,344,344
26/07/2022 18:30:00,26/07/2022 19:00:00,38,Northward at Haywards,0.150,299,299
26/07/2022 19:00:00,26/07/2022 19:30:00,39,Northward at Haywards,0.149,297,297
26/07/2022 19:30:00,26/07/2022 20:00:00,40,Northward at Haywards,0.122,244,244
26/07/2022 20:00:00,26/07/2022 20:30:00,41,Northward at Haywards,0.103,205,205
26/07/2022 20:30:00,26/07/2022 21:00:00,42,Northward at Haywards,0.096,192,192
26/07/2022 21:00:00,26/07/2022 21:30:00,43,Northward at Haywards,0.090,179,179
26/07/2022 21:30:00,26/07/2022 22:00:00,44,Northward at Haywards,0.107,214,214
26/07/2022 22:00:00,26/07/2022 22:30:00,45,Northward at Haywards,0.130,260,260
26/07/2022 22:30:00,26/07/2022 23:00:00,46,Northward at Haywards,0.116,232,232
26/07/2022 23:00:00,26/07/2022 23:30:00,47,Northward at Haywards,0.039,77,77
26/07/2022 23:30:00,27/07/2022 00:00:00,48,Northward at Haywards,0.044,88,88
27/07/2022 00:00:00,27/07/2022 00:30:00,1,Northward at Haywards,0.019,37,37
27/07/2022 00:30:00,27/07/2022 01:00:00,2,Northward at Haywards,0.004,7,7
27/07/2022 01:00:00,27/07/2022 01:30:00,3,Southward at Benmore,-0.025,-51,-51
27/07/2022 01:30:00,27/07/2022 02:00:00,4,Southward at Benmore,-0.034,-69,-69
27/07/2022 02:00:00,27/07/2022 02:30:00,5,Southward at Benmore,-0.018,-36,-36
27/07/2022 02:30:00,27/07/2022 03:00:00,6,Southward at Benmore,-0.004,-8,-8
27/07/2022 03:00:00,27/07/2022 03:30:00,7,Northward at Haywards,0.001,1,1
27/07/2022 03:30:00,27/07/2022 04:00:00,8,Southward at Benmore,-0.001,-3,-3
27/07/2022 04:00:00,27/07/2022 04:30:00,9,Northward at Haywards,0.029,58,58
27/07/2022 04:30:00,27/07/2022 05:00:00,10,Southward at Benmore,-0.021,-43,-43
27/07/2022 05:00:00,27/07/2022 05:30:00,11,Southward at Benmore,-0.052,-104,-104
27/07/2022 05:30:00,27/07/2022 06:00:00,12,Southward at Benmore,-0.066,-132,-132
27/07/2022 06:00:00,27/07/2022 06:30:00,13,Northward at Haywards,0.009,18,18
27/07/2022 06:30:00,27/07/2022 07:00:00,14,Northward at Haywards,0.103,206,206
27/07/2022 07:00:00,27/07/2022 07:30:00,15,Northward at Haywards,0.123,246,246
27/07/2022 07:30:00,27/07/2022 08:00:00,16,Northward at Haywards,0.117,233,233
27/07/2022 08:00:00,27/07/2022 08:30:00,17,Northward at Haywards,0.152,303,303
27/07/2022 08:30:00,27/07/2022 09:00:00,18,Northward at Haywards,0.170,340,340
27/07/2022 09:00:00,27/07/2022 09:30:00,19,Northward at Haywards,0.174,347,347
27/07/2022 09:30:00,27/07/2022 10:00:00,20,Northward at Haywards,0.190,379,379
27/07/2022 10:00:00,27/07/2022 10:30:00,21,Northward at Haywards,0.172,344,344
27/07/2022 10:30:00,27/07/2022 11:00:00,22,Northward at Haywards,0.176,351,351
27/07/2022 11:00:00,27/07/2022 11:30:00,23,Northward at Haywards,0.183,366,366
27/07/2022 11:30:00,27/07/2022 12:00:00,24,Northward at Haywards,0.182,363,363
27/07/2022 12:00:00,27/07/2022 12:30:00,25,Northward at Haywards,0.189,377,377
27/07/2022 12:30:00,27/07/2022 13:00:00,26,Northward at Haywards,0.168,336,336
27/07/2022 13:00:00,27/07/2022 13:30:00,27,Northward at Haywards,0.175,349,349
27/07/2022 13:30:00,27/07/2022 14:00:00,28,Northward at Haywards,0.187,374,374
27/07/2022 14:00:00,27/07/2022 14:30:00,29,Northward at Haywards,0.148,296,296
27/07/2022 14:30:00,27/07/2022 15:00:00,30,Northward at Haywards,0.179,358,358
27/07/2022 15:00:00,27/07/2022 15:30:00,31,Northward at Haywards,0.155,310,310
27/07/2022 15:30:00,27/07/2022 16:00:00,32,Northward at Haywards,0.169,337,337
27/07/2022 16:00:00,27/07/2022 16:30:00,33,Northward at Haywards,0.139,277,277
27/07/2022 16:30:00,27/07/2022 17:00:00,34,Northward at Haywards,0.110,219,219
27/07/2022 17:00:00,27/07/2022 17:30:00,35,Northward at Haywards,0.046,91,91
27/07/2022 17:30:00,27/07/2022 18:00:00,36,Northward at Haywards,0.050,99,99
27/07/2022 18:00:00,27/07/2022 18:30:00,37,Northward at Haywards,0.042,84,84
27/07/2022 18:30:00,27/07/2022 19:00:00,38,Northward at Haywards,0.031,62,62
27/07/2022 19:00:00,27/07/2022 19:30:00,39,Northward at Haywards,0.016,31,31
27/07/2022 19:30:00,27/07/2022 20:00:00,40,Northward at Haywards,0.025,49,49
27/07/2022 20:00:00,27/07/2022 20:30:00,41,Northward at Haywards,0.009,18,18
27/07/2022 20:30:00,27/07/2022 21:00:00,42,Northward at Haywards,0.015,30,30
27/07/2022 21:00:00,27/07/2022 21:30:00,43,Northward at Haywards,0.019,38,38
27/07/2022 21:30:00,27/07/2022 22:00:00,44,Northward at Haywards,0.023,46,46
27/07/2022 22:00:00,27/07/2022 22:30:00,45,Southward at Benmore,-0.032,-65,-65
27/07/2022 22:30:00,27/07/2022 23:00:00,46,Southward at Benmore,-0.028,-57,-57
27/07/2022 23:00:00,27/07/2022 23:30:00,47,Southward at Benmore,-0.124,-249,-249
27/07/2022 23:30:00,28/07/2022 00:00:00,48,Southward at Benmore,-0.158,-316,-316
28/07/2022 00:00:00,28/07/2022 00:30:00,1,Southward at Benmore,-0.132,-265,-265
28/07/2022 00:30:00,28/07/2022 01:00:00,2,Southward at Benmore,-0.145,-291,-291
28/07/2022 01:00:00,28/07/2022 01:30:00,3,Southward at Benmore,-0.163,-326,-326
28/07/2022 01:30:00,28/07/2022 02:00:00,4,Southward at Benmore,-0.145,-291,-291
28/07/2022 02:00:00,28/07/2022 02:30:00,5,Southward at Benmore,-0.136,-272,-272
28/07/2022 02:30:00,28/07/2022 03:00:00,6,Southward at Benmore,-0.131,-263,-263
28/07/2022 03:00:00,28/07/2022 03:30:00,7,Southward at Benmore,-0.124,-249,-249
28/07/2022 03:30:00,28/07/2022 04:00:00,8,Southward at Benmore,-0.124,-249,-249
28/07/2022 04:00:00,28/07/2022 04:30:00,9,Southward at Benmore,-0.085,-171,-171